This is the latest recevied weather packets stored in our database for station/object WE0DX-1. If no packets are shown the sender has not sent any weather packets the latest 1 day(s).
| Time | Temp. | Humidity | Pressure | Rain* | Wind** | Luminosity | Snow |
|---|---|---|---|---|---|---|---|
| 1778057035 | 7.22° C | 93% | 1015 hPa | 0 mm | - | 0 W/m² | - |
| 1778056732 | 7.22° C | 93% | 1014.8 hPa | 0 mm | - | 0 W/m² | - |
| 1778056429 | 7.22° C | 93% | 1014.8 hPa | 0 mm | - | 0 W/m² | - |
| 1778055823 | 7.22° C | 93% | 1014.7 hPa | 0 mm | - | 0 W/m² | - |
| 1778055212 | 7.22° C | 93% | 1014.6 hPa | 0 mm | - | 0 W/m² | - |
| 1778054606 | 7.22° C | 92% | 1014.2 hPa | 0 mm | - | 0 W/m² | - |
| 1778054304 | 7.22° C | 92% | 1014.1 hPa | 0 mm | - | 0 W/m² | - |
| 1778054001 | 7.22° C | 92% | 1014.1 hPa | 0 mm | - | 0 W/m² | - |
| 1778053698 | 7.22° C | 91% | 1013.7 hPa | 0 mm | - | 0 W/m² | - |
| 1778053395 | 7.22° C | 90% | 1014 hPa | 0 mm | - | 0 W/m² | - |
| 1778052487 | 7.22° C | 86% | 1013.9 hPa | 0 mm | - | 0 W/m² | - |
| 1778052184 | 7.22° C | 86% | 1013.7 hPa | 0 mm | - | 0 W/m² | - |
| 1778051276 | 7.22° C | 86% | 1013.5 hPa | 0 mm | - | 0 W/m² | - |
| 1778050973 | 7.22° C | 88% | 1013.5 hPa | 0 mm | - | 0 W/m² | - |
| 1778050059 | 7.22° C | 83% | 1014.3 hPa | 0 mm | - | 0 W/m² | - |
| 1778048545 | 7.22° C | 87% | 1014.5 hPa | 0 mm | - | 0 W/m² | - |
| 1778047637 | 7.22° C | 87% | 1014.9 hPa | 0 mm | - | 0 W/m² | - |
| 1778046120 | 7.78° C | 85% | 1015 hPa | 0 mm | - | 0 W/m² | - |
| 1778045818 | 7.78° C | 83% | 1015 hPa | 0 mm | - | 0 W/m² | - |
| 1778045516 | 7.78° C | 81% | 1015 hPa | 1.78 mm | - | 0 W/m² | - |
| 1778045214 | 7.78° C | 80% | 1015.1 hPa | 1.78 mm | - | 0 W/m² | - |
| 1778044609 | 8.33° C | 78% | 1015.1 hPa | 1.27 mm | - | 0 W/m² | - |
| 1778044003 | 8.89° C | 72% | 1014.9 hPa | 0 mm | - | 0 W/m² | - |
| 1778043397 | 9.44° C | 67% | 1015 hPa | 0 mm | - | 0 W/m² | - |
| 1778042791 | 10° C | 61% | 1014.4 hPa | 1.78 mm | - | 0 W/m² | - |
* Rain latest hour (hover to see other rain measurements)
** Current wind speed in m/s (hover to see current wind gust speed)